Bennington, VT

12:56 PM EDT on May 21, 2018 (GMT -0400)
Morse State

Weather History for KDDH - February, 2013

Change the Weather History Date:

Tuesday, February 12, 2013

  Actual Average Record
Temperature  
Mean Temperature 34 °F 24 °F  
Max Temperature 36 °F 34 °F 42 °F (2018)
Min Temperature 31 °F 15 °F -14 °F (2014)
Degree Days  
Heating Degree Days 31 41  
Month to date heating degree days 523 501  
Since 1 July heating degree days 4211 4632  
Cooling Degree Days 0 0  
Month to date cooling degree days 0 0  
Year to date cooling degree days 0 0  
Moisture  
Dew Point 25 °F    
Average Humidity 68    
Maximum Humidity 75    
Minimum Humidity 61    
Precipitation  
Precipitation 0.00 in 0.08 in 0.12 in (2017)
Month to date precipitation 0.38 0.84  
Year to date precipitation 1.83 3.59  
Sea Level Pressure  
Sea Level Pressure 29.77 in    
Wind  
Wind Speed 9 mph (West)    
Max Wind Speed 18 mph    
Max Gust Speed 29 mph    
Visibility 10 miles    
Events      
T = Trace of Precipitation, MM = Missing Value Source: NWS Daily Summary

Daily Weather History Graph

Daily Weather History Graph

Search for Another Location

Airport or City:

Astronomy

Feb. 12, 2013 Rise Set
Actual Time 6:54 AM EST 5:20 PM EST
Civil Twilight 6:24 AM EST 5:50 PM EST
Nautical Twilight 5:51 AM EST 6:23 PM EST
Astronomical Twilight 5:18 AM EST 6:56 PM EST
Moon 7:44 AM EST (2/12) 8:24 PM EST (2/12)
Length of Visible Light 11h 25m
Length of Day
10h 26m
Waxing Crescent, 7% of the Moon is Illuminated
Feb 12
Waxing Crescent
Feb 17
First Quarter
Feb 25
Full
Mar 4
Last Quarter
Mar 11
New

Hourly Weather History & Observations

Time (EST) Temp. Windchill Dew Point Humidity Pressure Visibility Wind Dir Wind Speed Gust Speed Precip Events Conditions
12:18 AM 35.6 °F 31.7 °F 28.4 °F 75% 29.67 in 10.0 mi Variable 4.6 mph - N/A   Overcast
12:29 AM 35.6 °F 29.9 °F 26.6 °F 70% 29.67 in 10.0 mi SW 6.9 mph - N/A   Overcast
12:54 AM 35.1 °F 29.3 °F 27.0 °F 72% 29.68 in 10.0 mi SW 6.9 mph - N/A   Overcast
1:54 AM 35.1 °F 31.0 °F 26.1 °F 70% 29.68 in 10.0 mi WSW 4.6 mph - N/A   Overcast
2:54 AM 35.1 °F 31.0 °F 26.1 °F 70% 29.68 in 10.0 mi Variable 4.6 mph - N/A   Overcast
3:16 AM 35.6 °F 32.8 °F 24.8 °F 65% 29.67 in 10.0 mi Variable 3.5 mph - N/A   Overcast
3:54 AM 35.1 °F - 25.0 °F 67% 29.68 in 10.0 mi Calm Calm - 0.01 in   Overcast
4:54 AM 35.1 °F - 26.1 °F 70% 29.69 in 10.0 mi Calm Calm - N/A   Overcast
5:03 AM 35.6 °F 29.9 °F 26.6 °F 70% 29.68 in 10.0 mi Variable 6.9 mph 17.3 mph N/A   Overcast
5:54 AM 36.0 °F 26.7 °F 25.0 °F 64% 29.71 in 10.0 mi WNW 15.0 mph 26.5 mph N/A   Overcast
6:54 AM 35.1 °F 26.4 °F 25.0 °F 67% 29.72 in 10.0 mi West 12.7 mph 19.6 mph N/A   Overcast
7:54 AM 36.0 °F 28.0 °F 24.1 °F 62% 29.74 in 10.0 mi West 11.5 mph 20.7 mph N/A   Overcast
8:54 AM 35.1 °F 26.4 °F 24.1 °F 64% 29.75 in 10.0 mi West 12.7 mph 27.6 mph N/A   Overcast
9:54 AM 35.1 °F 27.9 °F 25.0 °F 67% 29.77 in 10.0 mi West 9.2 mph 20.7 mph N/A   Overcast
10:54 AM 35.1 °F 27.4 °F 26.1 °F 70% 29.79 in 10.0 mi West 10.4 mph 25.3 mph N/A   Overcast
11:54 AM 35.1 °F 27.9 °F 26.1 °F 70% 29.79 in 10.0 mi WSW 9.2 mph 19.6 mph N/A   Overcast
12:54 PM 35.1 °F 26.9 °F 26.1 °F 70% 29.80 in 10.0 mi West 11.5 mph 28.8 mph N/A   Overcast
1:46 PM 35.6 °F 27.1 °F 26.6 °F 70% 29.78 in 10.0 mi WSW 12.7 mph 20.7 mph N/A   Overcast
1:54 PM 35.1 °F 27.4 °F 26.1 °F 70% 29.80 in 10.0 mi WSW 10.4 mph 24.2 mph N/A   Overcast
2:54 PM 35.1 °F 32.2 °F 26.1 °F 70% 29.82 in 10.0 mi Variable 3.5 mph - N/A   Overcast
3:54 PM 34.0 °F 24.6 °F 26.1 °F 73% 29.82 in 10.0 mi West 13.8 mph 24.2 mph N/A   Overcast
4:54 PM 34.0 °F 26.6 °F 25.0 °F 70% 29.81 in 10.0 mi West 9.2 mph 17.3 mph N/A   Overcast
6:54 PM 34.0 °F 25.0 °F 23.0 °F 64% 29.86 in 10.0 mi West 12.7 mph 24.2 mph N/A   Overcast
7:54 PM 34.0 °F 26.0 °F 23.0 °F 64% 29.90 in 10.0 mi WSW 10.4 mph 20.7 mph N/A   Overcast
8:17 PM 33.8 °F 28.6 °F 23.0 °F 65% 29.88 in 10.0 mi Variable 5.8 mph - N/A   Overcast
8:54 PM 33.1 °F 24.9 °F 21.9 °F 64% 29.91 in 10.0 mi West 10.4 mph 18.4 mph N/A   Overcast
9:54 PM 32.0 °F 24.8 °F 21.9 °F 66% 29.88 in 10.0 mi West 8.1 mph 18.4 mph N/A   Overcast
10:54 PM 30.9 °F 25.2 °F 21.9 °F 69% 29.87 in 10.0 mi Variable 5.8 mph - N/A   Overcast
11:54 PM 30.9 °F 23.5 °F 21.9 °F 69% 29.88 in 10.0 mi West 8.1 mph - N/A   Overcast